Time,TemperatureF,DewpointF,PressureIn,WindDirection,WindDirectionDegrees,WindSpeedMPH,WindSpeedGustMPH,Humidity,HourlyPrecipIn,Conditions,Clouds,dailyrainin,SoftwareType,DateUTC
2013-03-04 00:01:00,37.0,35.0,30.22,ENE,78,2.0,5.0,92,0.00,,,0.01,,2013-03-04 08:01:00,
2013-03-04 00:11:00,37.0,35.0,30.22,ENE,78,2.0,5.0,92,0.00,,,0.01,,2013-03-04 08:11:00,
2013-03-04 00:21:00,37.0,35.0,30.21,East,87,2.0,5.0,92,0.00,,,0.01,,2013-03-04 08:21:00,
2013-03-04 00:31:00,37.0,35.0,30.21,ENE,72,3.0,6.0,92,0.00,,,0.01,,2013-03-04 08:31:00,
2013-03-04 00:41:00,37.0,35.0,30.21,ENE,72,3.0,6.0,92,0.00,,,0.01,,2013-03-04 08:41:00,
2013-03-04 00:52:00,37.0,35.0,30.21,ENE,72,3.0,6.0,92,0.00,,,0.01,,2013-03-04 08:52:00,
2013-03-04 01:01:00,36.0,34.0,30.20,East,79,1.0,4.0,92,0.00,,,0.01,,2013-03-04 09:01:00,
2013-03-04 01:11:00,36.0,34.0,30.20,East,79,1.0,4.0,92,0.00,,,0.01,,2013-03-04 09:11:00,
2013-03-04 01:21:00,35.0,33.0,30.19,East,81,0.0,3.0,92,0.00,,,0.01,,2013-03-04 09:21:00,
2013-03-04 01:31:00,35.0,33.0,30.19,ESE,106,0.0,3.0,91,0.00,,,0.00,,2013-03-04 09:31:00,
2013-03-04 01:42:00,35.0,33.0,30.19,ESE,106,0.0,3.0,91,0.00,,,0.00,,2013-03-04 09:42:00,
2013-03-04 01:51:00,35.0,33.0,30.19,East,98,1.0,5.0,92,0.00,,,0.00,,2013-03-04 09:51:00,
2013-03-04 02:01:00,35.0,33.0,30.18,ESE,106,4.0,7.0,92,0.00,,,0.00,,2013-03-04 10:01:00,
2013-03-04 02:11:00,35.0,33.0,30.18,ESE,106,4.0,7.0,92,0.00,,,0.00,,2013-03-04 10:11:00,
2013-03-04 02:21:00,35.0,33.0,30.18,East,88,0.0,6.0,92,0.00,,,0.00,,2013-03-04 10:21:00,
2013-03-04 02:31:00,36.0,34.0,30.17,NE,52,8.0,12.0,93,0.00,,,0.00,,2013-03-04 10:31:00,
2013-03-04 02:41:00,36.0,34.0,30.17,NE,52,8.0,12.0,93,0.00,,,0.00,,2013-03-04 10:41:00,
2013-03-04 02:52:00,37.0,35.0,30.16,East,97,2.0,6.0,92,0.00,,,0.00,,2013-03-04 10:52:00,
2013-03-04 03:01:00,36.0,34.0,30.16,NE,45,0.0,7.0,92,0.00,,,0.00,,2013-03-04 11:01:00,
2013-03-04 03:11:00,36.0,34.0,30.16,NE,45,0.0,7.0,92,0.00,,,0.00,,2013-03-04 11:11:00,
2013-03-04 03:21:00,36.0,34.0,30.16,NE,45,0.0,7.0,92,0.00,,,0.00,,2013-03-04 11:21:00,
2013-03-04 03:31:00,37.0,35.0,30.15,NNE,27,4.0,10.0,92,0.00,,,0.00,,2013-03-04 11:31:00,
2013-03-04 03:42:00,37.0,35.0,30.15,NNE,27,4.0,10.0,92,0.00,,,0.00,,2013-03-04 11:42:00,
2013-03-04 03:52:00,37.0,35.0,30.15,NNE,27,4.0,10.0,92,0.00,,,0.00,,2013-03-04 11:52:00,
2013-03-04 04:01:00,38.0,36.0,30.14,East,88,13.0,20.0,91,0.00,,,0.00,,2013-03-04 12:01:00,
2013-03-04 04:11:00,38.0,36.0,30.14,East,88,13.0,20.0,91,0.00,,,0.00,,2013-03-04 12:11:00,
2013-03-04 04:22:00,40.0,36.0,30.14,ENE,73,13.0,22.0,85,0.00,,,0.00,,2013-03-04 12:22:00,
2013-03-04 04:32:00,40.0,36.0,30.14,NE,45,8.0,12.0,84,0.00,,,0.00,,2013-03-04 12:32:00,
2013-03-04 04:42:00,40.0,36.0,30.14,NE,45,8.0,12.0,84,0.00,,,0.00,,2013-03-04 12:42:00,
2013-03-04 04:52:00,40.0,36.0,30.14,North,360,4.0,9.0,86,0.00,,,0.00,,2013-03-04 12:52:00,
2013-03-04 05:02:00,40.0,36.0,30.13,North,356,2.0,8.0,87,0.00,,,0.00,,2013-03-04 13:02:00,
2013-03-04 05:11:00,40.0,36.0,30.13,North,356,2.0,8.0,87,0.00,,,0.00,,2013-03-04 13:11:00,
2013-03-04 05:21:00,40.0,36.0,30.13,NE,56,6.0,21.0,85,0.00,,,0.00,,2013-03-04 13:21:00,
2013-03-04 05:31:00,40.0,35.0,30.12,ENE,73,14.0,20.0,82,0.00,,,0.00,,2013-03-04 13:31:00,
2013-03-04 05:41:00,40.0,35.0,30.12,ENE,73,14.0,20.0,82,0.00,,,0.00,,2013-03-04 13:41:00,
2013-03-04 05:51:00,40.0,34.0,30.11,ENE,75,13.0,25.0,80,0.00,,,0.00,,2013-03-04 13:51:00,
2013-03-04 06:01:00,39.0,34.0,30.10,East,93,15.0,28.0,82,0.00,,,0.00,,2013-03-04 14:01:00,
2013-03-04 06:11:00,39.0,34.0,30.10,East,93,15.0,28.0,82,0.00,,,0.00,,2013-03-04 14:11:00,
2013-03-04 06:22:00,39.0,34.0,30.08,SE,125,18.0,35.0,81,0.00,,,0.00,,2013-03-04 14:22:00,
2013-03-04 06:32:00,39.0,34.0,30.07,East,96,22.0,34.0,81,0.00,,,0.00,,2013-03-04 14:32:00,
2013-03-04 06:41:00,39.0,34.0,30.07,East,96,22.0,34.0,81,0.00,,,0.00,,2013-03-04 14:41:00,
2013-03-04 06:52:00,39.0,34.0,30.07,SE,127,24.0,33.0,81,0.00,,,0.00,,2013-03-04 14:52:00,
2013-03-04 07:01:00,39.0,34.0,30.06,ESE,106,21.0,33.0,82,0.00,,,0.00,,2013-03-04 15:01:00,
2013-03-04 07:11:00,39.0,34.0,30.06,ESE,106,21.0,33.0,82,0.00,,,0.00,,2013-03-04 15:11:00,
2013-03-04 07:21:00,39.0,34.0,30.07,ESE,107,21.0,35.0,82,0.00,,,0.00,,2013-03-04 15:21:00,
2013-03-04 07:31:00,39.0,33.0,30.07,ESE,109,20.0,38.0,80,0.00,,,0.00,,2013-03-04 15:31:00,
2013-03-04 07:42:00,39.0,33.0,30.07,ESE,109,20.0,38.0,80,0.00,,,0.00,,2013-03-04 15:42:00,
2013-03-04 07:51:00,39.0,33.0,30.06,ESE,115,18.0,29.0,80,0.00,,,0.00,,2013-03-04 15:51:00,
2013-03-04 08:02:00,39.0,33.0,30.06,ESE,106,17.0,34.0,79,0.00,,,0.00,,2013-03-04 16:02:00,
2013-03-04 08:11:00,39.0,33.0,30.06,ESE,106,17.0,34.0,79,0.00,,,0.00,,2013-03-04 16:11:00,
2013-03-04 08:21:00,40.0,34.0,30.07,East,83,14.0,34.0,78,0.00,,,0.00,,2013-03-04 16:21:00,
2013-03-04 08:31:00,40.0,33.0,30.08,SE,133,12.0,32.0,77,0.00,,,0.00,,2013-03-04 16:31:00,
2013-03-04 08:41:00,40.0,33.0,30.08,SE,133,12.0,32.0,77,0.00,,,0.00,,2013-03-04 16:41:00,
2013-03-04 08:52:00,40.0,33.0,30.08,ENE,57,7.0,20.0,77,0.00,,,0.00,,2013-03-04 16:52:00,
2013-03-04 09:02:00,41.0,34.0,30.08,WNW,297,4.0,11.0,76,0.00,,,0.00,,2013-03-04 17:02:00,
2013-03-04 09:11:00,41.0,34.0,30.08,WNW,297,4.0,11.0,76,0.00,,,0.00,,2013-03-04 17:11:00,
2013-03-04 09:21:00,41.0,34.0,30.07,NE,40,8.0,20.0,76,0.00,,,0.00,,2013-03-04 17:21:00,
2013-03-04 09:31:00,42.0,35.0,30.07,West,279,2.0,13.0,77,0.00,,,0.00,,2013-03-04 17:31:00,
2013-03-04 09:42:00,42.0,35.0,30.07,West,279,2.0,13.0,77,0.00,,,0.00,,2013-03-04 17:42:00,
2013-03-04 09:52:00,43.0,35.0,30.07,WNW,302,4.0,10.0,74,0.00,,,0.00,,2013-03-04 17:52:00,
2013-03-04 10:01:00,44.0,35.0,30.06,SE,130,4.0,16.0,70,0.00,,,0.00,,2013-03-04 18:01:00,
2013-03-04 10:11:00,44.0,35.0,30.06,SE,130,4.0,16.0,70,0.00,,,0.00,,2013-03-04 18:11:00,
2013-03-04 10:21:00,45.0,35.0,30.07,East,79,5.0,13.0,69,0.00,,,0.00,,2013-03-04 18:21:00,
2013-03-04 10:32:00,46.0,35.0,30.07,East,88,8.0,18.0,66,0.00,,,0.00,,2013-03-04 18:32:00,
2013-03-04 10:42:00,46.0,35.0,30.07,East,88,8.0,18.0,66,0.00,,,0.00,,2013-03-04 18:42:00,
2013-03-04 10:52:00,46.0,35.0,30.06,SSE,153,7.0,18.0,65,0.00,,,0.00,,2013-03-04 18:52:00,
2013-03-04 11:01:00,48.0,36.0,30.06,SE,142,9.0,13.0,64,0.00,,,0.00,,2013-03-04 19:01:00,
2013-03-04 11:11:00,48.0,36.0,30.06,SE,142,9.0,13.0,64,0.00,,,0.00,,2013-03-04 19:11:00,
2013-03-04 11:21:00,48.0,37.0,30.06,SE,138,6.0,14.0,65,0.00,,,0.00,,2013-03-04 19:21:00,
2013-03-04 11:32:00,49.0,38.0,30.06,South,181,7.0,12.0,65,0.00,,,0.00,,2013-03-04 19:32:00,
2013-03-04 11:42:00,49.0,38.0,30.06,South,181,7.0,12.0,65,0.00,,,0.00,,2013-03-04 19:42:00,
2013-03-04 11:51:00,49.0,40.0,30.06,SW,219,5.0,7.0,70,0.00,,,0.00,,2013-03-04 19:51:00,
2013-03-04 12:01:00,49.0,40.0,30.06,SW,219,5.0,7.0,70,0.00,,,0.00,,2013-03-04 20:01:00,
2013-03-04 12:11:00,49.0,40.0,30.06,SW,219,5.0,7.0,70,0.00,,,0.00,,2013-03-04 20:11:00,
2013-03-04 12:21:00,49.0,40.0,30.05,WSW,237,3.0,8.0,70,0.00,,,0.00,,2013-03-04 20:21:00,
2013-03-04 12:32:00,49.0,40.0,30.05,WSW,239,3.0,6.0,70,0.00,,,0.00,,2013-03-04 20:32:00,
2013-03-04 12:41:00,49.0,40.0,30.05,WSW,239,3.0,6.0,70,0.00,,,0.00,,2013-03-04 20:41:00,
2013-03-04 12:52:00,50.0,40.0,30.05,SW,231,5.0,6.0,69,0.00,,,0.00,,2013-03-04 20:52:00,
2013-03-04 13:01:00,50.0,43.0,30.04,SSW,208,16.0,20.0,78,0.00,,,0.00,,2013-03-04 21:01:00,
2013-03-04 13:11:00,50.0,43.0,30.04,SSW,208,16.0,20.0,78,0.00,,,0.00,,2013-03-04 21:11:00,
2013-03-04 13:21:00,49.0,43.0,30.03,SW,217,18.0,22.0,81,0.00,,,0.00,,2013-03-04 21:21:00,
2013-03-04 13:32:00,49.0,44.0,30.03,SSW,204,16.0,22.0,82,0.00,,,0.00,,2013-03-04 21:32:00,
2013-03-04 13:42:00,49.0,44.0,30.03,SSW,204,16.0,22.0,82,0.00,,,0.00,,2013-03-04 21:42:00,
2013-03-04 13:52:00,49.0,44.0,30.03,SSW,193,15.0,21.0,83,0.00,,,0.00,,2013-03-04 21:52:00,
2013-03-04 14:01:00,50.0,45.0,30.02,SSW,194,15.0,20.0,84,0.00,,,0.00,,2013-03-04 22:01:00,
2013-03-04 14:11:00,50.0,45.0,30.02,SSW,194,15.0,20.0,84,0.00,,,0.00,,2013-03-04 22:11:00,
2013-03-04 14:21:00,50.0,45.0,30.01,SSW,205,14.0,22.0,84,0.00,,,0.00,,2013-03-04 22:21:00,
2013-03-04 14:31:00,50.0,45.0,30.01,SSW,198,17.0,19.0,83,0.00,,,0.00,,2013-03-04 22:31:00,
2013-03-04 14:42:00,50.0,45.0,30.01,SSW,198,17.0,19.0,83,0.00,,,0.00,,2013-03-04 22:42:00,
2013-03-04 14:51:00,50.0,45.0,30.01,SSW,196,15.0,21.0,84,0.00,,,0.00,,2013-03-04 22:51:00,
2013-03-04 15:01:00,50.0,45.0,30.01,SW,214,17.0,22.0,84,0.00,,,0.00,,2013-03-04 23:01:00,
2013-03-04 15:11:00,50.0,45.0,30.01,SW,214,17.0,22.0,84,0.00,,,0.00,,2013-03-04 23:11:00,
2013-03-04 15:21:00,50.0,45.0,30.00,SSW,194,17.0,23.0,84,0.00,,,0.00,,2013-03-04 23:21:00,
2013-03-04 15:32:00,50.0,45.0,30.00,SSW,196,21.0,29.0,84,0.00,,,0.00,,2013-03-04 23:32:00,
2013-03-04 15:41:00,50.0,45.0,30.00,SSW,196,21.0,29.0,84,0.00,,,0.00,,2013-03-04 23:41:00,
2013-03-04 15:52:00,49.0,44.0,30.00,SSW,200,18.0,29.0,84,0.00,,,0.00,,2013-03-04 23:52:00,
2013-03-04 16:01:00,49.0,45.0,30.00,SSW,206,14.0,25.0,85,0.00,,,0.00,,2013-03-05 00:01:00,
2013-03-04 16:11:00,49.0,45.0,30.00,SSW,206,14.0,25.0,85,0.00,,,0.00,,2013-03-05 00:11:00,
2013-03-04 16:21:00,48.0,44.0,30.00,SSW,202,21.0,26.0,86,0.00,,,0.00,,2013-03-05 00:21:00,
2013-03-04 16:32:00,48.0,44.0,30.01,SSW,194,14.0,26.0,86,0.00,,,0.00,,2013-03-05 00:32:00,
2013-03-04 16:41:00,48.0,44.0,30.01,SSW,194,14.0,26.0,86,0.00,,,0.00,,2013-03-05 00:41:00,
2013-03-04 16:51:00,48.0,44.0,30.00,SSW,195,22.0,31.0,86,0.00,,,0.00,,2013-03-05 00:51:00,
2013-03-04 17:01:00,47.0,43.0,30.00,SSW,198,19.0,28.0,86,0.00,,,0.00,,2013-03-05 01:01:00,
2013-03-04 17:11:00,47.0,43.0,30.00,SSW,198,19.0,28.0,86,0.00,,,0.00,,2013-03-05 01:11:00,
2013-03-04 17:21:00,47.0,42.0,29.99,SSW,206,22.0,30.0,84,0.00,,,0.00,,2013-03-05 01:21:00,
2013-03-04 17:32:00,47.0,43.0,29.99,SSW,200,24.0,34.0,85,0.00,,,0.00,,2013-03-05 01:32:00,
2013-03-04 17:41:00,47.0,43.0,29.99,SSW,200,24.0,34.0,85,0.00,,,0.00,,2013-03-05 01:41:00,
2013-03-04 17:51:00,47.0,43.0,29.98,South,171,22.0,31.0,85,0.00,,,0.00,,2013-03-05 01:51:00,
2013-03-04 18:01:00,47.0,42.0,29.98,South,179,22.0,29.0,83,0.00,,,0.00,,2013-03-05 02:01:00,
2013-03-04 18:11:00,47.0,42.0,29.98,South,179,22.0,29.0,83,0.00,,,0.00,,2013-03-05 02:11:00,
2013-03-04 18:21:00,47.0,42.0,29.98,South,184,19.0,25.0,84,0.00,,,0.00,,2013-03-05 02:21:00,
2013-03-04 18:32:00,47.0,42.0,29.98,SSW,196,23.0,29.0,84,0.00,,,0.00,,2013-03-05 02:32:00,
2013-03-04 18:41:00,47.0,42.0,29.98,SSW,196,23.0,29.0,84,0.00,,,0.00,,2013-03-05 02:41:00,
2013-03-04 18:52:00,46.0,41.0,29.98,SSW,206,16.0,30.0,84,0.00,,,0.00,,2013-03-05 02:52:00,
2013-03-04 19:01:00,46.0,41.0,29.96,SSW,195,12.0,20.0,84,0.00,,,0.00,,2013-03-05 03:01:00,
2013-03-04 19:12:00,46.0,41.0,29.96,SSW,195,12.0,20.0,84,0.00,,,0.00,,2013-03-05 03:12:00,
2013-03-04 19:21:00,46.0,41.0,29.97,South,179,15.0,24.0,83,0.00,,,0.00,,2013-03-05 03:21:00,
2013-03-04 19:31:00,45.0,40.0,29.96,South,173,10.0,21.0,82,0.00,,,0.00,,2013-03-05 03:31:00,
2013-03-04 19:41:00,45.0,40.0,29.96,South,173,10.0,21.0,82,0.00,,,0.00,,2013-03-05 03:41:00,
2013-03-04 19:51:00,45.0,40.0,29.96,South,174,9.0,19.0,82,0.00,,,0.00,,2013-03-05 03:51:00,
2013-03-04 20:01:00,45.0,40.0,29.96,South,191,14.0,26.0,83,0.00,,,0.00,,2013-03-05 04:01:00,
2013-03-04 20:11:00,45.0,40.0,29.96,South,191,14.0,26.0,83,0.00,,,0.00,,2013-03-05 04:11:00,
2013-03-04 20:21:00,45.0,40.0,29.96,South,189,14.0,22.0,82,0.00,,,0.00,,2013-03-05 04:21:00,
2013-03-04 20:31:00,45.0,40.0,29.96,South,171,12.0,21.0,83,0.00,,,0.00,,2013-03-05 04:31:00,
2013-03-04 20:41:00,45.0,40.0,29.96,South,171,12.0,21.0,83,0.00,,,0.00,,2013-03-05 04:41:00,
2013-03-04 20:51:00,45.0,40.0,29.95,South,185,8.0,17.0,82,0.00,,,0.00,,2013-03-05 04:51:00,
2013-03-04 21:01:00,45.0,40.0,29.95,South,185,8.0,17.0,82,0.00,,,0.00,,2013-03-05 05:01:00,
2013-03-04 21:11:00,45.0,40.0,29.95,South,185,8.0,17.0,82,0.00,,,0.00,,2013-03-05 05:11:00,
2013-03-04 21:22:00,45.0,40.0,29.94,SSE,168,7.0,15.0,83,0.00,,,0.00,,2013-03-05 05:22:00,
2013-03-04 21:31:00,44.0,39.0,29.94,SSE,159,9.0,14.0,83,0.00,,,0.00,,2013-03-05 05:31:00,
2013-03-04 21:41:00,44.0,39.0,29.94,SSE,159,9.0,14.0,83,0.00,,,0.00,,2013-03-05 05:41:00,
2013-03-04 21:52:00,44.0,39.0,29.93,SSW,196,1.0,6.0,83,0.00,,,0.00,,2013-03-05 05:52:00,
2013-03-04 22:01:00,43.0,38.0,29.93,SSE,164,3.0,6.0,82,0.00,,,0.00,,2013-03-05 06:01:00,
2013-03-04 22:11:00,43.0,38.0,29.93,SSE,164,3.0,6.0,82,0.00,,,0.00,,2013-03-05 06:11:00,
2013-03-04 22:22:00,41.0,36.0,29.93,East,82,1.0,3.0,82,0.00,,,0.00,,2013-03-05 06:22:00,
2013-03-04 22:31:00,40.0,35.0,29.92,East,79,0.0,4.0,82,0.00,,,0.00,,2013-03-05 06:31:00,
2013-03-04 22:41:00,40.0,35.0,29.92,East,79,0.0,4.0,82,0.00,,,0.00,,2013-03-05 06:41:00,
2013-03-04 22:52:00,40.0,35.0,29.91,ENE,59,0.0,5.0,82,0.00,,,0.00,,2013-03-05 06:52:00,
2013-03-04 23:01:00,42.0,37.0,29.90,SE,128,0.0,10.0,81,0.00,,,0.00,,2013-03-05 07:01:00,
2013-03-04 23:11:00,42.0,37.0,29.90,SE,128,0.0,10.0,81,0.00,,,0.00,,2013-03-05 07:11:00,
2013-03-04 23:21:00,42.0,35.0,29.89,SSE,156,8.0,13.0,76,0.00,,,0.00,,2013-03-05 07:21:00,
2013-03-04 23:31:00,44.0,38.0,29.88,ESE,109,8.0,16.0,78,0.00,,,0.00,,2013-03-05 07:31:00,
2013-03-04 23:41:00,44.0,38.0,29.88,ESE,109,8.0,16.0,78,0.00,,,0.00,,2013-03-05 07:41:00,
2013-03-04 23:51:00,45.0,38.0,29.88,SE,140,7.0,16.0,76,0.00,,,0.00,,2013-03-05 07:51:00,